{"data":{"norad_id":54820,"epoch":"2026-05-25T01:06:12.247776Z","epoch_age_seconds":74167,"freshness":"FRESH","line1":"1 54820U 22177A   26145.04597509 -.00002301  00000+0 -74107-4 0  9995","line2":"2 54820  43.0044  64.6277 0001323 265.3151  94.7550 15.27579644188603","mean_motion":15.27579644,"eccentricity":0.0001323,"inclination_deg":43.0044,"raan_deg":64.6277,"arg_perigee_deg":265.3151,"mean_anomaly_deg":94.755,"bstar":-7.4107e-5,"rev_number":18860,"period_min":94.266770682367,"perigee_km":482.14242697039,"apogee_km":483.95789709347,"semimajor_km":6861.1871620319,"source":"CELESTRAK","updated_at":"2026-05-25T13:38:17.717558Z"}}